| time (UTC) | temp F | wind direction | speed MPH | gust MPH | rain 1hr in | rain 24hr in | rain mn in | humidity % | barometer mb |
| 20260508133055 | 44 | 73 | 1.0 | 3.0 | 0.00 | 0.00 | 0.00 | 90 | 1017.6 |
| 20260508131648 | 43 | 64 | 2.0 | 3.0 | 0.00 | 0.00 | 0.00 | 89 | 1017.5 |
| 20260508130053 | 43 | 61 | 0.0 | 2.0 | 0.00 | 0.00 | 0.00 | 87 | 1017.5 |
| 20260508124559 | 44 | 61 | 1.0 | 2.0 | 0.00 | 0.00 | 0.00 | 88 | 1017.3 |
| 20260508123058 | 45 | 61 | 0.0 | 1.0 | 0.00 | 0.00 | 0.00 | 88 | 1017.3 |
| 20260508121556 | 45 | 0 | 1.0 | 3.0 | 0.00 | 0.00 | 0.00 | 89 | 1017.2 |
| 20260508120055 | 44 | 0 | 1.0 | 3.0 | 0.00 | 0.00 | 0.00 | 89 | 1017.2 |
| 20260508114603 | 45 | 0 | 0.0 | 2.0 | 0.00 | 0.00 | 0.00 | 88 | 1017.3 |
| 20260508113124 | 44 | 59 | 2.0 | 4.0 | 0.00 | 0.00 | 0.00 | 89 | 1017.3 |
| 20260508111552 | 44 | 0 | 0.0 | 1.0 | 0.00 | 0.00 | 0.00 | 86 | 1017.2 |
| 20260508110053 | 45 | 71 | 1.0 | 3.0 | 0.00 | 0.00 | 0.00 | 89 | 1017.3 |
| 20260508104559 | 45 | 71 | 2.0 | 3.0 | 0.00 | 0.00 | 0.00 | 88 | 1017.2 |
| 20260508103102 | 45 | 0 | 0.0 | 4.0 | 0.00 | 0.00 | 0.00 | 88 | 1017.4 |
| 20260508101553 | 45 | 0 | 0.0 | 2.0 | 0.00 | 0.00 | 0.00 | 87 | 1017.5 |
| 20260508100055 | 45 | 0 | 1.0 | 3.0 | 0.00 | 0.00 | 0.00 | 88 | 1017.5 |
| 20260508094554 | 45 | 73 | 0.0 | 2.0 | 0.00 | 0.00 | 0.00 | 87 | 1017.3 |
| 20260508093055 | 45 | 0 | 0.0 | 0.0 | 0.00 | 0.00 | 0.00 | 86 | 1017.2 |
| 20260508091552 | 45 | 0 | 0.0 | 2.0 | 0.00 | 0.00 | 0.00 | 86 | 1017.3 |
| 20260508090054 | 46 | 0 | 0.0 | 0.0 | 0.00 | 0.00 | 0.00 | 87 | 1017.4 |
| 20260508084554 | 46 | 0 | 0.0 | 3.0 | 0.00 | 0.00 | 0.00 | 86 | 1017.4 |
| 20260508083055 | 46 | 71 | 0.0 | 1.0 | 0.00 | 0.00 | 0.00 | 86 | 1017.7 |
| 20260508081621 | 46 | 0 | 0.0 | 1.0 | 0.00 | 0.00 | 0.00 | 84 | 1017.7 |
| 20260508080059 | 47 | 0 | 0.0 | 2.0 | 0.00 | 0.00 | 0.00 | 85 | 1017.9 |
| 20260508074600 | 47 | 72 | 0.0 | 3.0 | 0.00 | 0.00 | 0.00 | 83 | 1018.0 |
| 20260508073106 | 48 | 0 | 0.0 | 0.0 | 0.00 | 0.00 | 0.00 | 84 | 1018.1 |
| 20260508071602 | 49 | 0 | 0.0 | 0.0 | 0.00 | 0.00 | 0.00 | 83 | 1018.2 |
| 20260508064607 | 49 | 71 | 0.0 | 2.0 | 0.00 | 0.00 | 0.00 | 82 | 1018.3 |
| 20260508063054 | 51 | 0 | 0.0 | 3.0 | 0.00 | 0.00 | 0.00 | 82 | 1018.4 |
| 20260508061559 | 51 | 71 | 1.0 | 3.0 | 0.00 | 0.00 | 0.00 | 83 | 1018.5 |
| 20260508060058 | 51 | 70 | 1.0 | 3.0 | 0.00 | 0.00 | 0.00 | 82 | 1018.4 |
| 20260508054626 | 51 | 0 | 0.0 | 2.0 | 0.00 | 0.00 | 0.00 | 80 | 1018.2 |
| 20260508053056 | 52 | 0 | 0.0 | 2.0 | 0.00 | 0.00 | 0.00 | 81 | 1018.4 |
| 20260508051558 | 53 | 0 | 0.0 | 0.0 | 0.00 | 0.00 | 0.00 | 79 | 1018.3 |
| 20260508050058 | 54 | 0 | 0.0 | 2.0 | 0.00 | 0.00 | 0.00 | 79 | 1018.3 |
| 20260508044551 | 55 | 0 | 0.0 | 2.0 | 0.00 | 0.00 | 0.00 | 76 | 1018.2 |
| 20260508043058 | 57 | 232 | 1.0 | 2.0 | 0.00 | 0.00 | 0.00 | 75 | 1018.1 |
| 20260508041554 | 58 | 232 | 0.0 | 2.0 | 0.00 | 0.00 | 0.00 | 75 | 1018.0 |
| 20260508040104 | 59 | 0 | 0.0 | 0.0 | 0.00 | 0.00 | 0.00 | 76 | 1017.8 |
| 20260508034554 | 60 | 0 | 0.0 | 3.0 | 0.00 | 0.00 | 0.00 | 75 | 1017.6 |
| 20260508033054 | 62 | 223 | 3.0 | 5.0 | 0.00 | 0.00 | 0.00 | 74 | 1017.6 |
| 20260508031603 | 63 | 231 | 3.0 | 6.0 | 0.00 | 0.00 | 0.00 | 72 | 1017.3 |
| 20260508030103 | 64 | 234 | 2.0 | 6.0 | 0.00 | 0.00 | 0.00 | 69 | 1017.1 |
| 20260508024554 | 65 | 263 | 2.0 | 8.0 | 0.00 | 0.00 | 0.00 | 67 | 1016.8 |
| 20260508023053 | 67 | 239 | 1.0 | 4.0 | 0.00 | 0.00 | 0.00 | 65 | 1016.7 |
| 20260508021603 | 69 | 249 | 3.0 | 9.0 | 0.00 | 0.00 | 0.00 | 62 | 1016.6 |
| 20260508020055 | 71 | 263 | 3.0 | 9.0 | 0.00 | 0.00 | 0.00 | 58 | 1016.5 |
| 20260508014554 | 74 | 300 | 2.0 | 4.0 | 0.00 | 0.00 | 0.00 | 54 | 1016.4 |
| 20260508013055 | 74 | 250 | 3.0 | 7.0 | 0.00 | 0.00 | 0.00 | 54 | 1016.3 |
| 20260508011556 | 75 | 273 | 5.0 | 11.0 | 0.00 | 0.00 | 0.00 | 53 | 1016.3 |
| 20260508010054 | 76 | 225 | 5.0 | 11.0 | 0.00 | 0.00 | 0.00 | 51 | 1016.3 |
| 20260508004552 | 77 | 271 | 6.0 | 11.0 | 0.00 | 0.00 | 0.00 | 49 | 1016.2 |
| 20260508003053 | 80 | 252 | 7.0 | 14.0 | 0.00 | 0.00 | 0.00 | 46 | 1015.9 |
| 20260508001552 | 81 | 267 | 3.0 | 10.0 | 0.00 | 0.00 | 0.00 | 44 | 1015.8 |
| 20260508000113 | 82 | 221 | 3.0 | 12.0 | 0.00 | 0.00 | 0.00 | 44 | 1015.7 |
| 20260507234554 | 82 | 267 | 3.0 | 11.0 | 0.00 | 0.00 | 0.00 | 42 | 1015.7 |
| 20260507233052 | 83 | 215 | 4.0 | 17.0 | 0.00 | 0.00 | 0.00 | 40 | 1015.7 |
| 20260507231604 | 83 | 204 | 3.0 | 10.0 | 0.00 | 0.00 | 0.00 | 41 | 1015.7 |
| 20260507224556 | 83 | 263 | 5.0 | 14.0 | 0.00 | 0.00 | 0.00 | 38 | 1015.6 |
| 20260507223055 | 84 | 238 | 5.0 | 13.0 | 0.00 | 0.00 | 0.00 | 34 | 1015.6 |
| 20260507221600 | 83 | 288 | 6.0 | 13.0 | 0.00 | 0.00 | 0.00 | 35 | 1015.6 |
| 20260507220053 | 83 | 298 | 6.0 | 15.0 | 0.00 | 0.00 | 0.00 | 38 | 1016.0 |
| 20260507214555 | 83 | 242 | 8.0 | 14.0 | 0.00 | 0.00 | 0.00 | 37 | 1016.1 |
| 20260507213054 | 83 | 299 | 9.0 | 16.0 | 0.00 | 0.00 | 0.00 | 37 | 1016.2 |
| 20260507211601 | 83 | 212 | 6.0 | 16.0 | 0.00 | 0.00 | 0.00 | 39 | 1016.2 |
| 20260507210058 | 84 | 321 | 6.0 | 15.0 | 0.00 | 0.00 | 0.00 | 35 | 1016.2 |
| 20260507204550 | 83 | 295 | 7.0 | 14.0 | 0.00 | 0.00 | 0.00 | 32 | 1016.3 |
| 20260507203053 | 84 | 327 | 6.0 | 18.0 | 0.00 | 0.00 | 0.00 | 30 | 1016.2 |
| 20260507201555 | 84 | 283 | 6.0 | 12.0 | 0.00 | 0.00 | 0.00 | 35 | 1016.3 |
| 20260507200055 | 84 | 309 | 5.0 | 13.0 | 0.00 | 0.00 | 0.00 | 32 | 1016.3 |
| 20260507194556 | 83 | 290 | 5.0 | 13.0 | 0.00 | 0.00 | 0.00 | 34 | 1016.4 |
| 20260507193059 | 82 | 276 | 3.0 | 14.0 | 0.00 | 0.00 | 0.00 | 34 | 1016.7 |
| 20260507191554 | 81 | 284 | 6.0 | 11.0 | 0.00 | 0.00 | 0.00 | 39 | 1016.7 |
| 20260507190053 | 79 | 273 | 7.0 | 14.0 | 0.00 | 0.00 | 0.00 | 44 | 1016.9 |
| 20260507184558 | 79 | 257 | 5.0 | 11.0 | 0.00 | 0.00 | 0.00 | 44 | 1017.2 |
| 20260507183055 | 78 | 218 | 6.0 | 10.0 | 0.00 | 0.00 | 0.00 | 43 | 1017.2 |
| 20260507181551 | 77 | 275 | 6.0 | 10.0 | 0.00 | 0.00 | 0.00 | 44 | 1017.3 |
| 20260507180104 | 76 | 254 | 5.0 | 9.0 | 0.00 | 0.00 | 0.00 | 45 | 1017.5 |
| 20260507174617 | 75 | 250 | 4.0 | 8.0 | 0.00 | 0.00 | 0.00 | 46 | 1017.6 |
| 20260507173051 | 76 | 252 | 5.0 | 8.0 | 0.00 | 0.00 | 0.00 | 41 | 1017.5 |
| 20260507171610 | 76 | 251 | 4.0 | 8.0 | 0.00 | 0.00 | 0.00 | 41 | 1017.6 |
| 20260507170059 | 78 | 224 | 4.0 | 9.0 | 0.00 | 0.00 | 0.00 | 41 | 1017.6 |
| 20260507164558 | 77 | 261 | 2.0 | 7.0 | 0.00 | 0.00 | 0.00 | 35 | 1017.6 |
| 20260507163054 | 76 | 0 | 1.0 | 4.0 | 0.00 | 0.00 | 0.00 | 39 | 1017.7 |
| 20260507161558 | 76 | 264 | 0.0 | 4.0 | 0.00 | 0.00 | 0.00 | 37 | 1017.8 |
| 20260507160115 | 73 | 210 | 0.0 | 4.0 | 0.00 | 0.00 | 0.00 | 42 | 1017.8 |
| 20260507154554 | 70 | 0 | 0.0 | 1.0 | 0.00 | 0.00 | 0.00 | 49 | 1017.9 |
| 20260507153051 | 66 | 0 | 0.0 | 1.0 | 0.00 | 0.00 | 0.00 | 62 | 1017.9 |
| 20260507151559 | 61 | 0 | 0.0 | 2.0 | 0.00 | 0.00 | 0.00 | 74 | 1018.0 |
| 20260507150057 | 55 | 0 | 0.0 | 2.0 | 0.00 | 0.00 | 0.00 | 80 | 1017.9 |
| 20260507144556 | 53 | 63 | 0.0 | 5.0 | 0.00 | 0.00 | 0.00 | 84 | 1018.0 |
| 20260507143116 | 51 | 63 | 2.0 | 4.0 | 0.00 | 0.00 | 0.00 | 88 | 1017.9 |
| 20260507141614 | 49 | 0 | 1.0 | 2.0 | 0.00 | 0.00 | 0.00 | 91 | 1017.9 |
| 20260507140111 | 47 | 61 | 0.0 | 2.0 | 0.00 | 0.00 | 0.00 | 91 | 1017.9 |
| 20260507134600 | 44 | 0 | 0.0 | 3.0 | 0.00 | 0.00 | 0.00 | 91 | 1017.8 |